[[{"header":{"parameterUnit":"m.s-1","parameterCategory":1,"la1":30.2992,"la2":30.254,"lo1":-89.0895,"lo2":-89.0443,"dy":0.0025,"dx":0.0025,"nx":19,"ny":19,"refTime":"2026-03-09T03:00:00:Z","depth":0,"parameterNumber":2,"parameterNumberName":"U-component_of_WINDS"},"data":[0,0,0,-1.8377,-1.8378,-1.8394,-1.8394,-1.8428,-1.8428,0,0,0,0,0,0,0,0,0,0,0,-1.8379,-1.838,-1.8377,-1.8378,-1.8394,-1.8394,-1.8427,-1.8428,0,0,0,0,0,0,0,0,0,0,0,-1.8379,-1.8379,-1.838,-1.8378,-1.8394,-1.8394,-1.8427,-1.8411,0,0,0,0,0,0,0,0,0,0,-1.8392,-1.8401,-1.8379,-1.838,-1.8378,-1.8394,-1.8394,-1.841,-1.8412,-1.8425,0,-1.8438,0,-1.8434,-1.8431,-1.8431,0,0,0,-1.8373,-1.8399,-1.8398,-1.838,-1.8378,-1.8394,-1.8385,-1.8411,-1.8413,-1.8428,-1.8439,-1.844,-1.8434,-1.8431,-1.8431,-1.8526,-1.8526,0,0,-1.8372,-1.8386,-1.8396,-1.8399,-1.8397,-1.8385,-1.8386,-1.8412,-1.8425,-1.8439,-1.844,-1.8435,-1.8431,-1.8432,-1.8525,-1.8526,0,0,0,-1.8373,-1.8385,-1.8383,-1.8398,-1.84,-1.8386,-1.8387,-1.8424,-1.8422,-1.8441,-1.8435,-1.8432,-1.8432,-1.8524,-1.8525,-1.8573,0,0,0,-1.8372,-1.8386,-1.8383,-1.8391,-1.84,-1.8412,-1.8398,-1.842,-1.8422,-1.8435,-1.8432,-1.8433,-1.8523,-1.8525,-1.857,-1.8593,0,0,0,-1.8376,-1.8386,-1.8391,-1.8392,-1.84,-1.8411,-1.8411,-1.842,-1.8419,-1.8431,-1.8433,-1.8523,-1.8524,-1.8567,-1.8588,-1.8622,0,0,0,-1.8384,-1.8432,-1.8392,-1.8444,-1.84,-1.8441,-1.841,-1.844,-1.8456,-1.8432,-1.8523,-1.8525,-1.8566,-1.8586,-1.8619,-1.8653,-1.8668,0,0,-1.8453,-1.8441,-1.8471,-1.8435,-1.8487,-1.8437,-1.8496,-1.8497,-1.8485,-1.8513,-1.8515,-1.8571,-1.8588,-1.8621,-1.8749,-1.8761,0,0,0,-1.8498,-1.8519,-1.853,-1.8546,-1.8548,-1.8552,-1.8542,-1.8543,-1.8566,-1.8502,-1.8591,-1.8601,-1.862,-1.8636,-1.8646,-1.8662,-1.8533,-1.8533,-1.8532,-1.8615,-1.8598,-1.8646,-1.8631,-1.8647,-1.8638,-1.8649,-1.8648,-1.8625,-1.8647,-1.8655,-1.8735,-1.8753,-1.8761,-1.8777,-1.8672,-1.8672,-1.8672,-1.8672,-1.8714,-1.8742,-1.8713,-1.8749,-1.8731,-1.8761,-1.8754,-1.8737,-1.8763,-1.8727,-1.8743,-1.8704,-1.8775,-1.8788,-1.8675,-1.8675,-1.8674,-1.8674,-1.8674,-1.8789,-1.88,-1.88,-1.8822,-1.8841,-1.8825,-1.8851,-1.8833,-1.8817,-1.8833,-1.884,-1.8839,-1.8836,-1.8838,-1.8838,-1.8838,-1.8838,-1.8839,-1.8839,-1.8867,-1.8866,-1.889,-1.8898,-1.8906,-1.8915,-1.8907,-1.8915,-1.8919,-1.8904,-1.8904,-1.888,-1.8785,-1.8761,-1.8843,-1.8842,-1.8842,-1.8841,-1.8841,-1.8974,-1.8947,-1.8985,-1.8994,-1.9002,-1.9022,-1.9,-1.9018,-1.9022,-1.9036,-1.9009,-1.8941,-1.8928,-1.8919,-1.89,-1.9012,-1.9012,-1.9012,-1.9012,-1.9037,-1.9029,-1.9064,-1.9079,-1.9092,-1.9076,-1.912,-1.9115,-1.9106,-1.9107,-1.9089,-1.9061,-1.9053,-1.9045,-1.9034,-1.9015,-1.9154,-1.9154,-1.9154,-1.9102,-1.9094,-1.9135,-1.9125,-1.9131,-1.9136,-1.9177,-1.9196,-1.918,-1.916,-1.9108,-1.9102,-1.9058,-1.9044,-1.9022,-1.9005,-1.8971,0,0]},{"header":{"parameterUnit":"m.s-1","parameterCategory":1,"la1":30.2992,"la2":30.254,"lo1":-89.0895,"lo2":-89.0443,"dy":0.0025,"dx":0.0025,"nx":19,"ny":19,"refTime":"2026-03-09T03:00:00:Z","depth":0,"parameterNumber":3,"parameterNumberName":"V-component_of_WINDS"},"data":[0,0,0,1.0902,1.0902,1.0884,1.0884,1.087,1.087,0,0,0,0,0,0,0,0,0,0,0,1.0913,1.0913,1.0902,1.0902,1.0884,1.0884,1.087,1.087,0,0,0,0,0,0,0,0,0,0,0,1.0913,1.0913,1.0914,1.0902,1.0884,1.0884,1.087,1.088,0,0,0,0,0,0,0,0,0,0,1.0896,1.0912,1.0913,1.0914,1.0902,1.0884,1.0884,1.088,1.0879,1.0882,0,1.0886,0,1.0878,1.0869,1.0869,0,0,0,1.0898,1.0912,1.0903,1.0914,1.0902,1.0885,1.0891,1.088,1.0879,1.088,1.0885,1.0884,1.0877,1.0869,1.0869,1.0899,1.0899,0,0,1.0899,1.0913,1.0904,1.0902,1.0906,1.0892,1.0891,1.0879,1.0885,1.0885,1.0884,1.0877,1.0869,1.0869,1.0898,1.0899,0,0,0,1.0905,1.0914,1.0904,1.0903,1.0899,1.0891,1.089,1.0885,1.0881,1.0884,1.0877,1.0869,1.0869,1.0898,1.0898,1.093,0,0,0,1.0905,1.0917,1.0905,1.0913,1.09,1.0892,1.0897,1.0882,1.088,1.0877,1.0869,1.0869,1.0897,1.0898,1.0929,1.0943,0,0,0,1.0913,1.0918,1.0917,1.0914,1.0907,1.0892,1.0887,1.0881,1.0876,1.0869,1.0869,1.0897,1.0898,1.0927,1.094,1.0955,0,0,0,1.0925,1.0945,1.0918,1.0938,1.0907,1.0912,1.0887,1.0889,1.0887,1.0869,1.0898,1.0898,1.0926,1.0939,1.0954,1.0971,1.098,0,0,1.0958,1.095,1.096,1.0936,1.0949,1.0914,1.0931,1.0915,1.0901,1.09,1.0901,1.0929,1.094,1.0955,1.1021,1.1028,0,0,0,1.0976,1.0984,1.0984,1.0983,1.0972,1.0964,1.0944,1.0938,1.0937,1.0904,1.0938,1.0944,1.0952,1.096,1.0966,1.0972,1.0902,1.0902,1.0902,1.1044,1.1026,1.1042,1.1022,1.1022,1.1001,1.0999,1.0988,1.0968,1.0977,1.0976,1.1019,1.1028,1.1033,1.104,1.0984,1.0984,1.0984,1.0984,1.1092,1.1101,1.1076,1.1083,1.1064,1.1069,1.1051,1.1037,1.104,1.1017,1.1024,1.1001,1.1041,1.1046,1.0986,1.0986,1.0985,1.0985,1.0985,1.1135,1.1136,1.1129,1.1127,1.1127,1.1105,1.1109,1.1091,1.1073,1.108,1.1078,1.1077,1.1075,1.108,1.108,1.108,1.108,1.1081,1.1081,1.1183,1.1174,1.118,1.1171,1.1168,1.1163,1.1143,1.114,1.1131,1.1118,1.1117,1.1098,1.1048,1.1036,1.1083,1.1082,1.1082,1.1082,1.1082,1.1239,1.1224,1.1233,1.1231,1.1219,1.1221,1.1197,1.1193,1.1187,1.119,1.1169,1.1135,1.1124,1.112,1.111,1.1173,1.1173,1.1173,1.1173,1.1276,1.1269,1.1275,1.1273,1.1268,1.1249,1.126,1.1245,1.1227,1.1222,1.121,1.1196,1.1192,1.1183,1.1177,1.1168,1.1244,1.1244,1.1244,1.131,1.1302,1.1316,1.1299,1.1288,1.1279,1.129,1.1288,1.1264,1.1247,1.1219,1.1216,1.1191,1.1184,1.1167,1.1158,1.114,0,0]}]]